User: anonymous   Login
Location: Edinburgh
(55.9500°N, 3.1600°W)
Time: 07:11:01
(UTC+00:00)
Language:

CUBEBUG 2 - Orbit

View from above orbital plane
View from above orbital plane
View from above satellite
View from above satellite

Ground track
Ground track

The orbit data is extracted from the following two-line orbital elements,

1 39440U 13066AA  19077.95009478 +.00000255 +00000-0 +42367-4 0  9990
2 39440 097.6015 081.8101 0080940 024.0658 336.4301 14.75807833286445
Epoch (UTC): 18 March 2019 22:48:08
Eccentricity: 0.0080940
inclination: 97.6015°
perigee height: 586 km
apogee height: 699 km
right ascension of ascending node: 81.8101°
argument of perigee: 24.0658°
revolutions per day: 14.75807833
mean anomaly at epoch: 336.4301°
orbit number at epoch: 28644

The dashed part of the orbit path shows where the satellite is in the earth's shadow,  

DLR